TimeAEST,TemperatureF,Dew PointF,Humidity,Sea Level PressureIn,VisibilityMPH,Wind Direction,Wind SpeedMPH,Gust SpeedMPH,PrecipitationIn,Events,Conditions,WindDirDegrees,DateUTC
12:00 AM,74,73,96,29.94,3,WNW,6.9,,,,Overcast,290,2014-01-10 14:00:00
12:00 AM,73.4,73.4,100,29.92,3.7,WNW,6.9,-,N/A,,Overcast,290,2014-01-10 14:00:00
1:00 AM,73.4,73.4,100,29.92,1.3,SSE,5.8,-,N/A,,Overcast,160,2014-01-10 15:00:00
2:03 AM,73.4,73.4,100,29.89,-9999.0,SSW,3.5,-,N/A,,Overcast,200,2014-01-10 16:03:00
3:00 AM,74,73,97,29.89,,South,6.9,,,,Overcast,180,2014-01-10 17:00:00
3:00 AM,73.4,73.4,100,29.89,6.2,South,6.9,-,N/A,,Overcast,180,2014-01-10 17:00:00
4:00 AM,73.4,73.4,100,29.89,6.2,South,8.1,-,N/A,,Mostly Cloudy,170,2014-01-10 18:00:00
5:00 AM,73.4,71.6,94,29.89,6.2,South,6.9,-,N/A,,Scattered Clouds,170,2014-01-10 19:00:00
6:00 AM,74,72,92,29.91,,South,6.9,,,,,170,2014-01-10 20:00:00
6:00 AM,75.2,71.6,89,29.89,6.2,South,6.9,-,N/A,,Unknown,170,2014-01-10 20:00:00
7:00 AM,77.0,73.4,89,29.92,6.2,South,8.1,-,N/A,,Unknown,180,2014-01-10 21:00:00
8:00 AM,78.8,73.4,83,29.92,6.2,SSE,8.1,-,N/A,,Mostly Cloudy,160,2014-01-10 22:00:00
9:00 AM,83,69,54,29.94,11,East,16.1,,,,Partly Cloudy,100,2014-01-10 23:00:00
9:00 AM,82.4,69.8,66,29.92,6.2,ESE,16.1,-,N/A,,Unknown,110,2014-01-10 23:00:00
10:00 AM,82.4,69.8,66,29.95,6.2,East,13.8,-,N/A,,Mostly Cloudy,100,2014-01-11 00:00:00
11:00 AM,84.2,71.6,66,29.92,6.2,ESE,13.8,-,N/A,,Mostly Cloudy,110,2014-01-11 01:00:00
12:00 PM,84,69,53,29.93,,ESE,16.1,,,,,120,2014-01-11 02:00:00
12:00 PM,84.2,69.8,62,29.92,6.2,ESE,16.1,-,N/A,,Mostly Cloudy,120,2014-01-11 02:00:00
1:00 PM,84.2,71.6,66,29.92,6.2,ESE,15.0,-,N/A,,Mostly Cloudy,120,2014-01-11 03:00:00
2:00 PM,80.6,71.6,74,29.89,6.2,ESE,17.3,-,N/A,,Overcast,110,2014-01-11 04:00:00
3:00 PM,84,71,57,29.87,12,SE,16.1,,,,Partly Cloudy,130,2014-01-11 05:00:00
3:00 PM,84.2,71.6,66,29.86,6.2,SE,16.1,-,N/A,,Mostly Cloudy,130,2014-01-11 05:00:00
4:00 PM,82.4,73.4,74,29.86,6.2,ESE,17.3,-,N/A,,Overcast,120,2014-01-11 06:00:00
5:00 PM,80.6,71.6,74,29.86,6.2,SSE,13.8,-,N/A,,Mostly Cloudy,150,2014-01-11 07:00:00
6:00 PM,75,73,90,29.88,4,South,10.4,,,,Overcast,170,2014-01-11 08:00:00
6:00 PM,75.2,73.4,94,29.89,3.7,South,9.2,-,N/A,,Overcast,170,2014-01-11 08:00:00
7:00 PM,75.2,73.4,94,29.89,6.2,South,8.1,-,N/A,,Overcast,180,2014-01-11 09:00:00
8:05 PM,73.4,71.6,94,29.92,3.7,South,11.5,-,N/A,,Overcast,170,2014-01-11 10:05:00
9:00 PM,74,72,92,29.93,,SSW,6.9,,,,,200,2014-01-11 11:00:00
9:00 PM,73.4,71.6,94,29.92,6.2,South,6.9,-,N/A,,Scattered Clouds,190,2014-01-11 11:00:00
10:00 PM,73.4,71.6,94,29.92,6.2,South,8.1,-,N/A,,Scattered Clouds,170,2014-01-11 12:00:00
11:00 PM,75.2,71.6,89,29.92,6.2,South,9.2,-,N/A,,Scattered Clouds,170,2014-01-11 13:00:00